Temperature
8 9 9 9 9 9 8 7 8 9 10 10 10 10 10 10 10 9 9 8 8 7 7 7 6 6 6 6 6 6 6 6 6 5 5 5 5 5 5 4 4 4 4 4
6 8 8 8 8 8 8 8 8 9 9 10 11 10 10 10 9 9 8 8 7 7 7 6 6 6 6 6 6 6 5 5 5 5 5 5 5 4 4 4 4 4 3 3
6 9 8 7 9 8 8 9 9 8 9 10 9 9 9 9 9 8 8 8 7 7 6 6 6 6 6 5 5 5 5 5 5 5 5 5 4 4 4 4 4 3 3 3
6 7 7 10 9 10 9 9 9 9 9 9 9 9 9 9 8 8 7 7 7 6 6 6 6 6 5 5 5 5 5 5 5 5 5 4 4 4 4 3 3 3 3 2
6 6 8 9 8 9 8 8 9 9 9 9 9 8 9 9 8 7 7 7 6 6 6 6 6 5 5 5 5 5 5 5 5 4 4 4 4 4 3 3 3 3 2 2
6 6 7 9 8 8 8 7 8 9 8 8 8 6 7 8 7 7 7 6 6 6 6 5 5 5 5 5 5 5 4 4 4 4 4 4 3 3 3 3 3 2 2 2
5 6 7 8 8 7 7 8 8 8 8 8 7 6 7 7 7 6 6 6 5 5 5 5 5 4 4 4 4 4 4 4 4 4 4 3 3 3 2 2 2 2 2 2
5 5 6 7 7 7 7 8 7 7 7 7 6 6 6 6 6 5 5 5 5 5 5 5 4 4 4 4 4 4 4 4 4 3 3 3 3 2 2 2 2 2 1 1
7 7 8 8 8 8 8 7 7 6 6 6 5 5 5 5 5 5 5 5 4 4 4 4 4 4 4 4 4 3 3 3 3 3 3 2 2 2 2 1 1 1 1 1
6 7 9 9 8 8 7 7 6 6 5 5 5 5 4 4 4 4 4 4 4 4 4 4 4 3 3 3 3 3 3 3 3 3 2 2 2 1 1 1 1 1 1 0
5 7 8 8 8 7 6 6 5 5 5 4 4 4 4 4 4 4 4 4 3 3 3 3 3 3 3 3 3 3 2 2 2 2 2 2 1 1 1 1 1 0 0 -0
5 7 6 7 7 6 6 5 5 4 4 4 4 3 3 3 3 3 3 3 3 3 3 3 3 3 3 3 2 2 2 2 2 2 1 1 1 1 1 0 -0 -0 -1 -1
7 6 6 6 6 5 5 4 4 4 4 4 3 3 3 3 3 3 3 3 3 3 3 3 3 3 2 2 2 2 1 1 1 1 1 1 0 0 0 -0 -0 -1 -1 -1
6 6 5 5 4 4 4 4 4 3 3 3 3 3 3 3 3 3 3 3 3 3 3 3 2 2 2 2 1 1 1 1 1 1 1 0 -0 -0 -1 -1 -1 -1 -1 -1
5 4 4 4 4 4 3 3 3 3 3 3 3 3 3 3 3 3 3 3 3 3 3 2 2 2 2 2 1 1 1 1 1 1 0 -0 -1 -1 -1 -1 -1 -1 -2 -2
4 4 3 3 3 3 3 3 3 3 3 3 3 3 3 2 3 3 3 2 2 2 2 2 2 2 2 1 1 1 1 1 0 -0 -0 -1 -1 -1 -2 -2 -2 -2 -2 -2
3 3 3 3 3 3 3 3 3 3 2 2 2 2 2 2 2 2 2 2 2 2 2 2 2 1 1 1 1 0 0 0 -0 -1 -1 -1 -1 -2 -2 -2 -2 -2 -3 -3
3 3 3 3 3 3 3 3 3 2 2 2 2 2 2 2 2 2 2 2 2 2 2 2 1 1 1 0 -0 -0 -0 -1 -1 -1 -1 -2 -2 -2 -2 -2 -2 -3 -3 -3
3 3 2 2 2 2 2 2 2 2 2 2 2 2 2 2 2 2 1 1 1 1 2 1 1 0 0 -0 -1 -1 -1 -1 -1 -1 -2 -2 -2 -2 -2 -3 -3 -3 -3 -4
2 2 2 2 2 2 2 2 2 2 2 2 1 1 1 2 1 1 1 1 1 1 1 1 0 -0 -0 -1 -1 -1 -1 -1 -2 -2 -2 -2 -2 -2 -3 -3 -3 -4 -4 -4
2 2 2 2 2 2 2 2 2 2 2 1 1 1 1 1 1 0 0 0 1 1 0 -0 -0 -0 -1 -1 -1 -1 -2 -2 -2 -2 -2 -2 -3 -3 -3 -3 -4 -4 -4 -4
2 2 2 1 1 2 2 1 1 1 1 1 1 1 0 0 0 0 0 -0 0 -0 -0 -1 -1 -1 -1 -2 -2 -2 -2 -2 -2 -2 -2 -3 -3 -3 -3 -4 -4 -4 -5 -5
1 1 1 1 1 1 1 1 1 1 1 0 0 0 -0 -0 -0 -1 -0 -0 -1 -1 -1 -1 -1 -2 -2 -2 -2 -2 -2 -2 -2 -3 -3 -3 -3 -3 -4 -4 -4 -5 -5 -5
1 1 1 1 0 0 0 1 0 0 0 0 0 -0 -0 -1 -1 -0 -1 -1 -1 -1 -1 -2 -2 -2 -2 -2 -2 -2 -3 -3 -3 -3 -3 -3 -4 -4 -4 -5 -5 -5 -5 -6
0 0 0 0 0 0 0 -0 -0 -0 -0 -0 -0 -0 -1 -1 -1 -1 -1 -1 -2 -2 -2 -2 -2 -2 -3 -3 -3 -3 -3 -3 -3 -3 -4 -4 -4 -4 -5 -5 -5 -6 -6 -6
-0 -0 -0 -0 -0 -0 -0 -1 -1 -1 -1 -1 -1 -1 -1 -1 -2 -2 -2 -2 -2 -2 -2 -3 -3 -3 -3 -3 -3 -3 -3 -4 -4 -4 -4 -4 -5 -5 -5 -5 -6 -6 -6 -7
-1 -1 -1 -1 -1 -1 -1 -1 -1 -1 -1 -1 -1 -1 -2 -2 -2 -2 -2 -2 -3 -3 -3 -3 -3 -3 -3 -4 -4 -4 -4 -4 -4 -4 -5 -5 -5 -5 -6 -6 -6 -6 -7 -7
Wind_Speed
7 7 6 8 8 8 10 9 7 7 6 5 3 3 1 1 1 2 2 2 2 2 3 3 3 3 3 3 3 3 4 5 6 5 5 4 4 4 4 4 4 4 3 3
6 6 7 9 11 11 11 12 12 12 12 5 1 2 2 2 2 3 3 3 3 3 3 3 3 3 2 3 3 3 4 5 5 4 4 4 5 5 4 5 4 4 4 4
4 3 6 8 8 10 7 7 8 9 7 3 2 2 3 4 3 4 3 3 3 3 3 3 3 3 3 4 3 4 5 5 5 5 5 5 5 5 5 5 5 5 5 5
4 5 6 4 2 1 6 7 7 7 5 4 3 4 5 4 3 3 3 4 4 3 3 3 3 3 3 3 3 4 5 5 5 5 6 5 5 6 5 5 5 5 5 5
2 5 7 3 2 2 2 4 4 5 4 4 4 5 4 1 2 2 3 3 3 3 4 4 4 3 3 3 4 5 6 6 6 6 6 6 6 6 5 5 5 5 5 5
3 4 5 1 3 3 2 3 2 2 1 2 3 3 3 3 4 3 3 3 3 4 4 4 4 3 3 4 5 6 6 6 5 5 6 7 7 6 5 5 5 5 5 5
6 6 7 1 4 3 2 2 1 2 2 2 3 4 4 4 4 4 5 5 4 5 5 5 4 3 5 6 7 6 5 5 5 6 6 6 6 5 5 5 5 5 5 5
6 6 7 4 5 4 2 1 1 2 3 4 5 6 6 6 6 5 5 5 5 4 5 5 4 4 6 7 7 5 4 5 5 5 6 5 6 5 5 5 5 5 5 5
7 7 2 6 4 3 1 2 2 3 4 4 6 7 7 7 6 6 6 5 4 4 6 5 5 5 7 7 5 4 5 6 5 5 5 5 6 6 5 6 5 5 5 6
5 6 3 4 4 2 1 2 3 3 4 5 6 7 7 7 6 6 5 5 4 5 6 6 6 5 6 6 5 5 6 6 5 5 5 5 5 5 5 6 6 6 6 6
7 7 5 4 2 1 2 2 3 4 5 6 7 8 7 7 7 6 5 5 4 5 7 8 7 7 6 6 5 5 6 6 5 5 5 5 5 6 7 7 8 8 7 6
7 4 3 3 1 1 2 4 4 5 5 6 6 7 7 6 6 5 6 5 6 6 7 8 7 7 6 5 5 6 6 5 5 4 5 4 4 5 8 8 10 11 10 8
6 3 3 4 3 2 2 3 3 5 6 7 6 6 6 6 5 6 6 7 7 7 8 8 8 8 7 6 5 6 6 6 5 5 5 5 5 5 5 6 8 10 11 11
4 3 4 3 3 2 3 3 4 6 6 7 6 6 6 6 6 7 8 7 7 7 8 8 8 9 7 5 5 6 6 7 6 5 5 5 6 6 5 5 5 5 8 11
4 4 4 3 2 3 3 3 5 6 6 6 5 6 6 7 8 8 8 7 7 8 8 8 8 9 6 5 5 6 6 5 5 5 5 5 5 5 6 6 6 5 4 6
3 3 3 4 4 4 4 5 5 6 6 6 6 7 7 7 8 9 8 7 7 9 9 9 9 9 6 6 6 6 6 8 7 5 5 5 5 6 6 6 6 5 5 5
4 4 4 5 5 5 5 5 5 6 6 7 8 8 8 8 9 9 9 8 8 9 9 9 9 8 6 6 6 5 5 6 7 6 5 6 6 6 6 6 6 6 6 6
6 6 5 5 5 6 6 5 6 6 7 8 8 8 8 9 10 11 10 8 8 9 10 9 8 7 6 6 5 5 5 5 5 5 5 5 6 6 6 6 7 7 5 6
4 5 5 6 6 5 6 6 7 7 8 8 8 9 9 10 10 10 9 8 9 11 10 7 8 6 6 7 6 4 5 5 5 5 5 8 7 5 6 6 6 6 5 5
3 4 4 5 5 5 6 7 8 8 8 8 9 10 11 11 10 9 9 10 10 9 8 8 7 6 6 6 7 4 5 6 6 6 5 5 6 6 6 6 6 6 6 6
4 4 5 5 6 7 8 8 8 9 9 8 9 11 12 12 10 9 8 11 10 9 8 9 6 5 5 6 7 5 5 6 6 6 6 6 6 6 6 6 6 6 6 6
4 4 6 6 7 8 8 7 8 9 10 10 10 11 11 11 11 9 10 10 10 10 7 6 5 7 8 8 5 5 6 6 6 6 6 6 6 6 6 6 6 6 5 5
5 6 6 7 7 8 9 8 9 9 10 11 11 11 11 11 8 8 11 8 6 9 7 6 8 11 12 7 5 6 7 7 7 6 6 6 6 6 6 6 6 5 5 5
6 7 7 7 7 8 11 11 10 9 10 11 11 11 10 9 9 8 8 10 11 11 8 9 12 13 11 6 6 6 7 7 7 6 6 6 5 5 5 5 5 5 5 6
7 8 8 8 8 9 11 11 10 10 10 9 10 10 9 8 8 9 7 8 11 11 8 10 13 13 8 6 6 7 7 7 7 6 6 6 6 5 5 5 5 5 5 5
8 8 8 9 9 9 8 8 8 8 8 9 9 8 7 6 8 8 7 8 10 11 8 7 7 8 6 6 6 7 6 7 7 7 6 6 6 6 5 5 6 5 5 5
8 8 8 8 9 9 8 8 9 9 8 8 10 9 7 7 7 7 8 7 7 7 7 6 6 6 6 6 6 6 5 5 5 5 5 5 5 5 5 6 5 5 4 4
Wind_Direction
289 289 275 260 250 226 218 221 236 264 286 294 306 305 290 202 249 261 264 267 269 264 265 259 247 240 234 236 227 212 212 220 224 218 209 205 203 201 200 200 204 204 207 214
287 252 254 263 250 241 237 234 246 268 281 289 331 18 347 305 292 281 280 276 275 270 268 265 259 250 247 245 234 218 223 228 226 213 207 207 207 203 202 205 206 203 210 214
288 308 300 270 240 215 214 215 223 245 255 303 329 321 304 297 288 277 280 292 289 274 264 265 257 243 244 243 240 232 232 232 224 214 212 212 209 207 209 210 207 208 212 212
288 312 261 241 50 138 214 238 234 250 280 314 317 307 289 275 266 285 306 310 305 289 276 268 262 250 239 237 238 240 239 236 228 220 218 213 209 214 215 210 210 212 215 215
260 284 277 223 157 136 203 268 243 239 271 316 347 330 308 8 40 325 306 303 300 290 277 269 263 254 242 242 243 247 245 239 232 223 221 214 215 218 216 212 215 216 214 213
243 255 262 242 121 91 72 260 43 58 333 335 355 314 284 5 3 334 320 306 297 292 283 273 265 258 251 251 248 248 247 245 236 223 220 219 220 218 213 210 216 213 217 215
235 251 267 187 142 132 183 234 41 17 341 317 272 256 294 325 319 303 293 287 283 280 275 269 264 254 253 255 251 250 248 243 235 224 221 220 218 214 211 210 211 213 221 225
200 222 249 158 146 184 216 91 341 325 323 308 293 299 307 306 297 291 289 284 278 276 276 271 259 248 255 255 254 253 249 244 237 229 225 218 212 215 209 202 210 220 226 235
205 219 209 167 188 188 120 301 309 310 312 305 295 293 296 295 291 286 284 285 280 276 281 278 262 246 256 261 256 253 251 247 241 234 226 217 213 214 212 206 212 222 223 233
270 264 250 223 224 219 231 266 293 296 296 288 281 283 288 288 288 290 289 289 289 286 284 282 275 265 260 265 256 249 251 250 241 233 232 224 217 211 212 214 217 222 225 232
255 270 277 245 221 260 313 310 298 292 286 282 280 283 285 288 289 287 289 287 283 275 275 278 279 277 271 265 256 254 252 249 243 233 230 229 224 220 221 221 218 221 226 224
238 238 242 255 309 346 301 289 288 291 291 287 279 282 287 285 285 287 288 287 283 277 276 278 279 279 277 266 251 249 254 249 242 235 230 227 231 248 238 232 237 235 232 230
251 275 277 288 315 329 286 290 294 286 281 285 284 281 283 283 282 282 281 279 275 275 277 277 278 276 272 264 251 246 249 248 244 235 229 226 224 230 251 252 244 243 240 239
258 265 271 267 273 281 281 284 285 283 277 273 276 280 280 280 281 280 277 276 277 280 279 277 274 272 269 262 254 251 250 247 243 236 229 227 226 227 230 238 251 257 247 244
242 233 241 260 263 269 272 277 284 284 283 283 281 277 276 277 279 280 281 281 281 278 276 274 273 272 269 262 255 253 252 247 240 234 229 230 231 232 233 235 240 246 247 245
233 240 242 241 247 257 262 267 273 280 285 285 286 284 282 279 278 280 279 274 273 276 277 275 273 273 269 261 257 254 250 246 242 236 230 232 233 234 236 236 238 236 236 236
212 227 230 240 247 252 253 257 264 274 282 283 283 287 289 287 286 283 280 274 267 270 272 270 271 271 262 252 250 250 249 247 242 241 235 233 233 235 235 234 237 239 239 231
211 221 228 237 245 253 259 265 267 271 272 274 281 283 282 279 279 282 284 284 283 282 275 266 262 263 256 250 246 245 244 245 239 238 240 238 241 237 234 235 236 240 244 239
212 223 237 245 245 246 254 264 269 270 273 275 276 275 273 273 273 277 280 279 278 282 281 269 263 259 255 249 247 244 242 244 246 244 242 245 249 242 237 237 238 238 235 229
220 232 242 251 255 251 259 267 272 275 275 274 274 276 278 276 275 275 276 273 269 264 269 272 268 261 256 251 247 242 241 242 244 245 242 241 242 242 240 238 237 238 234 227
245 249 252 256 262 262 259 263 267 271 275 272 269 271 274 278 277 274 276 282 279 267 265 267 264 258 254 249 246 241 240 243 245 244 242 241 240 242 240 237 239 239 233 230
247 251 256 259 264 270 268 262 260 266 272 273 270 269 272 276 277 273 264 264 273 273 271 264 260 256 254 254 246 245 246 245 246 244 241 239 239 241 241 238 239 238 232 226
250 252 257 259 262 269 275 269 262 262 265 268 268 267 266 268 268 271 281 272 265 267 267 262 259 260 263 258 248 249 249 247 247 244 242 240 239 239 240 239 239 234 228 223
255 256 257 260 263 269 274 274 268 263 262 265 265 262 262 270 274 261 257 268 271 272 268 264 265 265 265 256 249 249 248 248 247 245 242 240 239 238 237 237 236 229 222 219
254 258 262 263 265 264 265 270 274 272 270 270 268 264 258 250 257 270 267 265 268 272 271 270 270 268 261 251 246 247 247 245 246 241 237 236 237 236 235 233 227 222 220 219
254 257 258 253 254 260 263 265 268 269 269 273 276 271 265 259 257 263 266 264 262 267 267 265 265 263 253 248 247 245 244 248 252 246 238 237 236 234 234 228 221 220 219 215
256 257 261 264 262 255 253 254 258 263 261 263 273 274 269 267 264 265 266 265 265 263 260 259 256 251 248 247 247 246 243 240 238 237 236 236 234 232 227 222 221 216 210 207
Height
1508 1505 1505 1505 1505 1505 1508 1508 1508 1498 1494 1491 1490 1490 1490 1491 1491 1491 1491 1491 1490 1489 1488 1487 1486 1485 1484 1483 1482 1481 1480 1480 1479 1479 1478 1478 1477 1477 1477 1477 1476 1476 1475 1475
1512 1503 1503 1503 1500 1500 1501 1500 1499 1497 1494 1489 1488 1488 1489 1489 1489 1489 1489 1488 1488 1486 1485 1484 1483 1482 1481 1480 1479 1478 1477 1476 1475 1474 1474 1473 1473 1473 1473 1472 1472 1472 1471 1471
1512 1502 1502 1502 1489 1492 1493 1491 1493 1494 1491 1487 1487 1487 1487 1487 1487 1487 1486 1486 1485 1483 1482 1481 1480 1479 1477 1476 1475 1474 1473 1472 1471 1470 1469 1469 1468 1468 1468 1468 1467 1467 1467 1467
1514 1508 1508 1488 1484 1483 1486 1486 1487 1486 1486 1486 1486 1485 1485 1484 1484 1484 1484 1483 1481 1480 1479 1478 1476 1475 1474 1472 1471 1470 1469 1468 1467 1466 1465 1464 1464 1463 1463 1463 1463 1462 1462 1462
1514 1510 1497 1486 1485 1485 1486 1486 1483 1484 1484 1484 1484 1484 1483 1482 1482 1482 1481 1480 1479 1477 1476 1474 1473 1471 1470 1468 1467 1466 1465 1463 1463 1461 1460 1460 1459 1458 1458 1458 1458 1458 1458 1457
1511 1509 1499 1486 1485 1484 1487 1487 1483 1482 1483 1483 1483 1486 1483 1481 1480 1479 1478 1476 1475 1473 1472 1470 1469 1467 1466 1464 1462 1461 1460 1459 1458 1457 1456 1455 1454 1454 1454 1453 1453 1453 1453 1453
1513 1507 1494 1484 1483 1485 1490 1487 1483 1482 1482 1482 1482 1482 1481 1478 1477 1476 1474 1473 1471 1469 1468 1466 1465 1463 1461 1460 1458 1457 1456 1455 1453 1452 1451 1450 1450 1449 1449 1449 1448 1448 1448 1447
1505 1505 1495 1482 1483 1485 1484 1482 1481 1481 1481 1480 1479 1478 1477 1475 1473 1472 1470 1468 1467 1465 1463 1462 1461 1459 1457 1455 1454 1453 1451 1450 1448 1447 1446 1445 1444 1444 1443 1443 1443 1442 1442 1442
1490 1487 1479 1478 1478 1479 1479 1479 1479 1478 1478 1477 1475 1474 1473 1471 1469 1468 1466 1464 1463 1461 1459 1457 1456 1454 1452 1451 1449 1448 1446 1444 1443 1442 1441 1440 1439 1438 1438 1437 1437 1437 1436 1436
1483 1477 1475 1476 1476 1476 1476 1476 1475 1475 1474 1473 1471 1470 1468 1467 1465 1464 1462 1460 1458 1456 1454 1452 1451 1450 1448 1446 1444 1442 1440 1439 1438 1436 1435 1435 1434 1433 1433 1432 1432 1431 1431 1430
1480 1474 1473 1472 1472 1473 1473 1472 1472 1471 1470 1469 1467 1466 1464 1462 1461 1459 1458 1456 1454 1452 1450 1448 1446 1444 1443 1441 1439 1437 1435 1434 1432 1431 1430 1429 1428 1428 1427 1427 1427 1426 1425 1425
1473 1470 1470 1469 1469 1469 1469 1468 1468 1467 1466 1465 1464 1462 1460 1458 1457 1455 1453 1451 1450 1448 1445 1443 1441 1439 1437 1436 1434 1432 1430 1428 1427 1425 1424 1423 1422 1422 1421 1421 1421 1421 1420 1420
1466 1466 1466 1466 1466 1465 1465 1464 1464 1463 1462 1460 1459 1458 1456 1454 1452 1451 1449 1447 1445 1443 1441 1438 1436 1433 1432 1430 1428 1426 1424 1423 1421 1420 1418 1417 1416 1415 1414 1415 1415 1414 1414 1414
1462 1462 1461 1461 1462 1461 1461 1460 1460 1459 1458 1456 1455 1453 1452 1450 1449 1447 1445 1443 1441 1438 1436 1433 1431 1428 1426 1424 1422 1420 1418 1417 1415 1414 1413 1412 1410 1410 1409 1408 1408 1407 1408 1408
1457 1458 1458 1458 1457 1457 1457 1457 1456 1455 1454 1452 1451 1450 1448 1446 1444 1443 1441 1439 1436 1433 1431 1428 1425 1423 1421 1419 1416 1414 1412 1411 1409 1408 1407 1406 1405 1404 1403 1402 1402 1401 1401 1401
1452 1453 1453 1453 1453 1453 1453 1453 1452 1451 1450 1448 1447 1446 1444 1442 1440 1438 1436 1433 1431 1428 1425 1422 1419 1417 1415 1412 1410 1408 1406 1405 1403 1402 1401 1400 1399 1398 1397 1396 1396 1395 1395 1395
1448 1448 1449 1449 1449 1449 1449 1449 1448 1447 1446 1444 1443 1441 1439 1437 1435 1432 1430 1428 1425 1422 1420 1417 1414 1411 1409 1407 1404 1402 1400 1399 1398 1396 1395 1394 1393 1392 1392 1391 1390 1389 1389 1389
1442 1444 1445 1445 1445 1445 1445 1445 1444 1443 1441 1440 1438 1436 1434 1432 1429 1426 1424 1422 1419 1416 1414 1411 1408 1405 1403 1401 1399 1397 1395 1393 1392 1390 1389 1388 1387 1387 1386 1385 1384 1384 1383 1383
1438 1439 1440 1441 1441 1441 1440 1440 1439 1438 1436 1434 1432 1430 1428 1426 1423 1421 1418 1415 1412 1409 1407 1405 1402 1399 1397 1395 1393 1391 1389 1387 1386 1385 1384 1383 1382 1381 1380 1379 1378 1378 1378 1378
1435 1436 1437 1437 1437 1437 1436 1435 1434 1433 1431 1429 1427 1424 1421 1419 1417 1414 1411 1408 1406 1403 1400 1398 1395 1393 1390 1388 1387 1385 1383 1382 1380 1379 1378 1377 1376 1375 1374 1373 1373 1372 1372 1372
1432 1433 1433 1433 1433 1432 1431 1430 1429 1427 1425 1423 1421 1418 1415 1412 1410 1407 1404 1400 1398 1397 1394 1391 1389 1386 1384 1382 1381 1379 1377 1376 1375 1374 1372 1371 1370 1369 1368 1368 1367 1366 1366 1366
1429 1429 1429 1428 1428 1427 1426 1425 1423 1421 1418 1416 1414 1411 1408 1405 1402 1400 1397 1394 1391 1389 1387 1384 1382 1380 1378 1376 1374 1373 1371 1370 1369 1368 1367 1365 1364 1363 1362 1362 1361 1361 1361 1360
1425 1425 1424 1424 1422 1421 1419 1418 1416 1414 1411 1409 1406 1404 1401 1398 1395 1392 1389 1387 1385 1382 1380 1377 1376 1374 1372 1370 1368 1367 1365 1364 1363 1362 1361 1360 1358 1357 1357 1356 1355 1355 1355 1355
1421 1420 1419 1418 1416 1414 1412 1410 1409 1406 1404 1402 1399 1397 1394 1391 1387 1385 1383 1380 1378 1375 1373 1371 1369 1367 1365 1363 1362 1360 1359 1358 1357 1355 1354 1353 1352 1352 1351 1350 1350 1349 1349 1349
1414 1413 1412 1411 1409 1407 1405 1403 1401 1398 1396 1394 1391 1389 1387 1384 1381 1378 1376 1373 1371 1368 1366 1364 1362 1360 1358 1357 1355 1354 1352 1351 1350 1349 1348 1347 1346 1346 1345 1345 1344 1344 1344 1344
1408 1406 1405 1403 1401 1399 1397 1395 1393 1390 1388 1385 1383 1380 1378 1376 1374 1371 1368 1366 1363 1361 1359 1357 1355 1353 1352 1350 1349 1347 1346 1345 1344 1343 1342 1341 1341 1340 1339 1339 1339 1339 1339 1339
1400 1398 1396 1394 1393 1391 1390 1387 1385 1383 1380 1378 1375 1372 1370 1368 1365 1363 1360 1358 1355 1353 1351 1349 1348 1346 1345 1343 1342 1341 1340 1339 1338 1337 1336 1336 1335 1334 1334 1334 1334 1334 1334 1335